TimeAKDT,TemperatureF,Dew PointF,Humidity,Sea Level PressureIn,VisibilityMPH,Wind Direction,Wind SpeedMPH,Gust SpeedMPH,PrecipitationIn,Events,Conditions,WindDirDegrees,DateUTC
12:16 AM,66.2,42.8,43,29.69,10.0,Calm,Calm,-,N/A,,Clear,0,2013-08-03 08:16:00
12:36 AM,64.4,42.8,45,29.69,10.0,Calm,Calm,-,N/A,,Clear,0,2013-08-03 08:36:00
12:56 AM,64.4,42.8,45,29.67,10.0,Calm,Calm,-,N/A,,Clear,0,2013-08-03 08:56:00
1:16 AM,66.2,42.8,43,29.67,10.0,Calm,Calm,-,N/A,,Clear,0,2013-08-03 09:16:00
1:36 AM,66.2,42.8,43,29.67,10.0,West,3.5,-,N/A,,Clear,280,2013-08-03 09:36:00
1:56 AM,66.2,42.8,43,29.66,10.0,Calm,Calm,-,N/A,,Clear,0,2013-08-03 09:56:00
2:16 AM,66.2,42.8,43,29.66,10.0,Calm,Calm,-,N/A,,Clear,0,2013-08-03 10:16:00
2:36 AM,64.4,42.8,45,29.65,10.0,Calm,Calm,-,N/A,,Clear,0,2013-08-03 10:36:00
2:56 AM,64.4,42.8,45,29.64,10.0,Calm,Calm,-,N/A,,Clear,0,2013-08-03 10:56:00
3:16 AM,64.4,42.8,45,29.63,10.0,Calm,Calm,-,N/A,,Clear,0,2013-08-03 11:16:00
3:36 AM,64.4,42.8,45,29.62,10.0,Calm,Calm,-,N/A,,Partly Cloudy,0,2013-08-03 11:36:00
3:56 AM,64.4,42.8,45,29.61,10.0,Calm,Calm,-,N/A,,Partly Cloudy,0,2013-08-03 11:56:00
4:16 AM,64.4,42.8,45,29.61,10.0,Calm,Calm,-,N/A,,Clear,0,2013-08-03 12:16:00
4:36 AM,62.6,42.8,48,29.60,10.0,Calm,Calm,-,N/A,,Clear,0,2013-08-03 12:36:00
4:56 AM,62.6,42.8,48,29.59,10.0,Calm,Calm,-,N/A,,Clear,0,2013-08-03 12:56:00
5:16 AM,60.8,42.8,52,29.59,10.0,Calm,Calm,-,N/A,,Clear,0,2013-08-03 13:16:00
5:36 AM,60.8,42.8,52,29.59,10.0,Calm,Calm,-,N/A,,Clear,0,2013-08-03 13:36:00
5:56 AM,60.8,46.4,59,29.61,10.0,Calm,Calm,-,N/A,,Clear,0,2013-08-03 13:56:00
6:16 AM,59.0,44.6,59,29.60,10.0,Calm,Calm,-,N/A,,Mostly Cloudy,0,2013-08-03 14:16:00
6:36 AM,60.8,46.4,59,29.60,10.0,Calm,Calm,-,N/A,,Mostly Cloudy,0,2013-08-03 14:36:00
6:56 AM,60.8,46.4,59,29.60,10.0,Calm,Calm,-,N/A,,Overcast,0,2013-08-03 14:56:00
7:16 AM,60.8,46.4,59,29.60,10.0,West,3.5,-,N/A,,Mostly Cloudy,260,2013-08-03 15:16:00
7:36 AM,60.8,46.4,59,29.59,10.0,Calm,Calm,-,N/A,,Scattered Clouds,0,2013-08-03 15:36:00
7:56 AM,60.8,46.4,59,29.59,10.0,Calm,Calm,-,N/A,,Partly Cloudy,0,2013-08-03 15:56:00
8:16 AM,62.6,44.6,52,29.59,10.0,Calm,Calm,-,N/A,,Clear,0,2013-08-03 16:16:00
8:36 AM,62.6,46.4,55,29.60,10.0,SW,3.5,-,N/A,,Clear,220,2013-08-03 16:36:00
8:56 AM,60.8,48.2,63,29.60,10.0,Calm,Calm,-,N/A,,Clear,0,2013-08-03 16:56:00
9:16 AM,62.6,46.4,55,29.60,10.0,Calm,Calm,-,N/A,,Clear,0,2013-08-03 17:16:00
9:36 AM,64.4,48.2,56,29.60,10.0,Calm,Calm,-,N/A,,Clear,0,2013-08-03 17:36:00
9:56 AM,66.2,48.2,52,29.59,10.0,Calm,Calm,-,N/A,,Clear,0,2013-08-03 17:56:00
10:16 AM,68.0,48.2,49,29.59,10.0,Calm,Calm,-,N/A,,Clear,0,2013-08-03 18:16:00
10:36 AM,69.8,50.0,49,29.60,10.0,East,3.5,-,N/A,,Clear,90,2013-08-03 18:36:00
10:56 AM,69.8,51.8,53,29.59,10.0,Calm,Calm,-,N/A,,Clear,0,2013-08-03 18:56:00
11:16 AM,71.6,50.0,46,29.59,10.0,SE,3.5,-,N/A,,Clear,140,2013-08-03 19:16:00
11:36 AM,73.4,50.0,44,29.59,10.0,Calm,Calm,-,N/A,,Clear,0,2013-08-03 19:36:00
11:56 AM,71.6,50.0,46,29.59,10.0,Calm,Calm,-,N/A,,Clear,0,2013-08-03 19:56:00
12:16 PM,71.6,48.2,43,29.59,10.0,Calm,Calm,-,N/A,,Clear,0,2013-08-03 20:16:00
12:36 PM,71.6,48.2,43,29.60,10.0,SE,3.5,-,N/A,,Clear,140,2013-08-03 20:36:00
12:56 PM,71.6,46.4,41,29.60,10.0,Calm,Calm,-,N/A,,Clear,0,2013-08-03 20:56:00
1:16 PM,71.6,46.4,41,29.60,10.0,South,5.8,-,N/A,,Clear,190,2013-08-03 21:16:00
1:36 PM,71.6,44.6,38,29.60,10.0,South,4.6,-,N/A,,Clear,190,2013-08-03 21:36:00
1:56 PM,73.4,44.6,36,29.59,10.0,Calm,Calm,-,N/A,,Clear,0,2013-08-03 21:56:00
2:16 PM,73.4,44.6,36,29.59,10.0,Calm,Calm,-,N/A,,Clear,0,2013-08-03 22:16:00
2:36 PM,73.4,46.4,38,29.60,10.0,Calm,Calm,-,N/A,,Scattered Clouds,0,2013-08-03 22:36:00
2:56 PM,71.6,44.6,38,29.61,10.0,Calm,Calm,-,N/A,,Mostly Cloudy,0,2013-08-03 22:56:00
3:16 PM,73.4,48.2,41,29.60,10.0,SW,5.8,-,N/A,,Partly Cloudy,220,2013-08-03 23:16:00
3:36 PM,73.4,44.6,36,29.60,10.0,SW,6.9,-,N/A,,Clear,220,2013-08-03 23:36:00
3:56 PM,73.4,44.6,36,29.60,10.0,WSW,3.5,-,N/A,,Scattered Clouds,240,2013-08-03 23:56:00
4:16 PM,73.4,44.6,36,29.60,10.0,WSW,3.5,-,N/A,,Mostly Cloudy,250,2013-08-04 00:16:00
4:36 PM,71.6,44.6,38,29.60,10.0,WSW,4.6,-,N/A,,Mostly Cloudy,240,2013-08-04 00:36:00
4:56 PM,71.6,46.4,41,29.61,10.0,SW,4.6,-,N/A,,Overcast,230,2013-08-04 00:56:00
5:16 PM,71.6,44.6,38,29.61,10.0,Calm,Calm,-,N/A,,Mostly Cloudy,0,2013-08-04 01:16:00
5:36 PM,69.8,44.6,40,29.62,10.0,SW,4.6,-,N/A,,Mostly Cloudy,230,2013-08-04 01:36:00
5:56 PM,69.8,44.6,40,29.62,10.0,SSW,5.8,-,N/A,,Overcast,210,2013-08-04 01:56:00
6:16 PM,69.8,42.8,38,29.62,10.0,SW,5.8,-,N/A,,Mostly Cloudy,230,2013-08-04 02:16:00
6:36 PM,68.0,42.8,40,29.61,10.0,SW,8.1,18.4,N/A,,Overcast,220,2013-08-04 02:36:00
6:56 PM,68.0,44.6,43,29.61,10.0,SSW,9.2,-,N/A,,Mostly Cloudy,210,2013-08-04 02:56:00
7:16 PM,68.0,44.6,43,29.60,10.0,SSW,10.4,16.1,N/A,,Partly Cloudy,210,2013-08-04 03:16:00
7:36 PM,68.0,42.8,40,29.61,10.0,SSW,12.7,20.7,N/A,,Clear,210,2013-08-04 03:36:00
7:56 PM,68.0,42.8,40,29.60,10.0,SSW,15.0,24.2,N/A,,Clear,200,2013-08-04 03:56:00
8:16 PM,66.2,42.8,43,29.61,10.0,SSW,13.8,23.0,N/A,,Mostly Cloudy,200,2013-08-04 04:16:00
8:36 PM,66.2,42.8,43,29.62,10.0,SSW,13.8,24.2,N/A,,Overcast,200,2013-08-04 04:36:00
8:56 PM,66.2,42.8,43,29.62,10.0,South,15.0,23.0,N/A,,Mostly Cloudy,190,2013-08-04 04:56:00
9:16 PM,66.2,42.8,43,29.63,10.0,SSW,17.3,20.7,N/A,,Overcast,200,2013-08-04 05:16:00
9:36 PM,66.2,42.8,43,29.64,10.0,South,18.4,24.2,N/A,,Overcast,190,2013-08-04 05:36:00
9:56 PM,66.2,42.8,43,29.64,10.0,SSW,13.8,23.0,N/A,,Mostly Cloudy,200,2013-08-04 05:56:00
10:16 PM,66.2,42.8,43,29.65,10.0,SSW,13.8,21.9,N/A,,Overcast,200,2013-08-04 06:16:00
10:36 PM,64.4,42.8,45,29.66,10.0,SW,10.4,20.7,N/A,,Overcast,220,2013-08-04 06:36:00
10:56 PM,64.4,44.6,49,29.67,10.0,SSW,8.1,16.1,N/A,,Mostly Cloudy,210,2013-08-04 06:56:00
11:16 PM,62.6,44.6,52,29.67,10.0,WSW,4.6,-,N/A,,Partly Cloudy,250,2013-08-04 07:16:00
11:36 PM,60.8,46.4,59,29.68,10.0,West,4.6,-,N/A,,Clear,260,2013-08-04 07:36:00
11:56 PM,60.8,46.4,59,29.69,10.0,South,5.8,-,N/A,,Clear,170,2013-08-04 07:56:00